THOR 6

Last updated on Wed Sep 09 2026 00:02:59 GMT+0000 (Coordinated Universal Time)

1 36033U 09058B 26251.37366619 -.00000031 00000+0 00000+0 0 9997 2 36033 0.0095 182.6842 0001709 342.8313 315.6082 1.00270879 61841
UTC large
Height (km)
Speed (km/s)
/
Latitude / Longitude
Inclination (degrees)
Orbital Period (minutes)
Azimuth
Elevation
Range (km)
Doppler Factor

Next 0 passes for location: London (51.5072 / 0.1276)

No passes found over London.
THOR 6